Regional Weather Roundup
Issued by NWS Newport/Morehead, NC

Current Version | Previous Version | Text Only | Print | Product List | Glossary Off
Versions: 1 2 3 4 5 6 7 8 9 10 11 12 13 14 15 16 17 18 19 20 21 22 23 24 25 26 27 28 29 30 31 32 33 34 35 36 37 38 39 40 41 42 43 44 45 46 47 48 49 50
000 ASUS42 KMHX 031225 RWRMHX WEATHER ROUNDUP FOR EASTERN NORTH CAROLINA NATIONAL WEATHER SERVICE NEWPORT/MOREHEAD CITY NC 800 AM EDT TUE MAY 03 2016 NOTE: "FAIR" INDICATES FEW OR NO CLOUDS BELOW 12,000 FEET WITH NO SIGNIFICANT WEATHER AND/OR OBSTRUCTIONS TO VISIBILITY NCZ015>017-031-032-045>047-102-103-031300- NORTH COAST CITY SKY/WX TMP DP RH WIND PRES REMARKS EDENTON RAIN 67 67 100 W3 29.87R ELIZABETH CITY HVY RAIN 68 66 93 W9 29.84R FOG KITTY HAWK LGT RAIN 68 66 94 W6 29.82F MANTEO NOT AVBL $$ NCZ045>047-081-094-103-104-031300- CENTRAL COAST CITY SKY/WX TMP DP RH WIND PRES REMARKS FRISCO PTSUNNY 71 69 93 SW14 29.86R SWANQUARTER NOT AVBL $$ NCZ095-097-098-100-101-031300- SOUTHERN COAST CITY SKY/WX TMP DP RH WIND PRES REMARKS BEAUFORT HVY RAIN 66 64 93 SW10 29.91R VSB 3/4 CEDAR ISLAND NOT AVBL JACKSONVILLE TSTM 65 63 93 SW3 29.89F FOG PINEY ISLAND NOT AVBL WILMINGTON LGT RAIN 65 63 93 W5 29.90S FOG $$ NCZ011>013-027>030-043-044-078>080-089-090>093-098-031300- COASTAL PLAIN CITY SKY/WX TMP DP RH WIND PRES REMARKS AHOSKIE RAIN 64 63 97 CALM 29.85R CLINTON LGT RAIN 65 65 100 CALM 29.89R ELIZABETHTOWN CLOUDY 66 66 100 CALM 29.88S GOLDSBORO LGT RAIN 66 66 100 W2 29.84S GREENVILLE RAIN 66 66 100 CALM 29.88F HAVELOCK TSTM 66 64 93 SW8 29.90F KENANSVILLE RAIN 64 64 97 CALM 29.89R KINSTON RAIN 66 64 94 SW5 29.87S NEW BERN RAIN 65 63 93 SW3 29.89F FOG RICHLANDS RAIN 64 64 100 S5 29.89S ROCKY MOUNT LGT RAIN 65 65 100 CALM 29.85S FOG WASHINGTON RAIN 66 65 97 CALM 29.86F WHITEVILLE RAIN 65 64 94 CALM 29.88S $$ AMZ130-135-150-152-154-156-158-170-250-252-270-ANZ085-086-088-633-658-670-031300- MARINE OBSERVATIONS STATION/POSITION TIME TEMP WIND PRES WAVE SWELL AIR SEA DIR/SP/G HT/PER HT/PER (UTC) (F) (DEG/KT/KT) (MB) (FT/S) (FT/S) CHESAPEAKE LIGHT 1200 65 240/ 16/ 16 1009.6 64 E VA BEACH 1150 59 54 200/ 10/ 12 1009.3 3/ 6 3/ 6 DUCK 1200 68 66 230/ 13/ 17 1009.9 2 E DUCK 1111 58 N/A 2/10 OREGON INLET 1200 71 72 200/ 16/ 19 1010.1 13E OREGON INLT 1200 61 N/A 4/ 5 2/11 HATTERAS CG 1200 72 70 220/ 15/ 21 1010.7 DIAMOND BUOY 1150 74 73 230/ 19/ 23 1010.3 5/ 6 2/ 9 CAPE LOOKOUT 1200 72 220/ 12/ 18 1011.7 BEAUFORT LAB 1200 66 67 270/ 9/ 22 1011.9 30 SE NEW RVR IN 1125 70 N/A 6/ 6 27 SE WRIGHTSVLE 1208 74 72 210/ 19/ 25 1011.1 5 SE WRIGHTSVLE 1208 69 69 310/ 12/ 21 1013.1 225 S CAPE HAT 1150 74 74 170/ 16/ 19 1015.6 4/ 5 2/10 41 SE CHARLESTON 1150 76 74 200/ 16/ 19 1011.2 5/ 6 2/11 $$

USA.gov is the U.S. government's official web portal to all federal, state and local government web resources and services.